This is the latest recevied weather packets stored in our database for station/object DL1GHN-6. If no packets are shown the sender has not sent any weather packets the latest 10 day(s).
| Time | Temp. | Humidity | Pressure | Rain* | Wind** | Luminosity | Snow |
|---|---|---|---|---|---|---|---|
| 1777959917 | 12.78° C | 89% | 1009.8 hPa | 0 mm | - | 65 W/m² | - |
| 1777959617 | 12.22° C | 89% | 1009.8 hPa | 0 mm | - | 56 W/m² | - |
| 1777959318 | 12.22° C | 89% | 1009.8 hPa | 0 mm | - | 40 W/m² | - |
| 1777959018 | 12.22° C | 89% | 1009.7 hPa | 0 mm | - | 33 W/m² | - |
| 1777958717 | 12.22° C | 90% | 1009.7 hPa | 0 mm | - | 33 W/m² | - |
| 1777958418 | 12.22° C | 90% | 1009.7 hPa | 0 mm | - | 32 W/m² | - |
| 1777958119 | 12.22° C | 90% | 1009.7 hPa | 0 mm | - | 30 W/m² | - |
| 1777957818 | 12.22° C | 90% | 1009.6 hPa | 0 mm | - | 25 W/m² | - |
| 1777957518 | 12.22° C | 90% | 1009.7 hPa | 0 mm | - | 18 W/m² | - |
| 1777957218 | 12.22° C | 90% | 1009.7 hPa | 0 mm | - | 14 W/m² | - |
| 1777956918 | 12.22° C | 90% | 1009.6 hPa | 0 mm | - | 12 W/m² | - |
| 1777956619 | 11.67° C | 90% | 1009.6 hPa | 0 mm | - | 9 W/m² | - |
| 1777956318 | 11.67° C | 90% | 1009.8 hPa | 0 mm | - | 7 W/m² | - |
| 1777956018 | 11.67° C | 90% | 1009.8 hPa | 0 mm | - | 5 W/m² | - |
| 1777955717 | 11.67° C | 90% | 1009.8 hPa | 0 mm | - | 0 W/m² | - |
| 1777955418 | 11.11° C | 90% | 1009.7 hPa | 0 mm | - | 0 W/m² | - |
| 1777955119 | 11.11° C | 89% | 1009.5 hPa | 0 mm | - | 0 W/m² | - |
| 1777954818 | 11.11° C | 89% | 1009.6 hPa | 0 mm | - | 0 W/m² | - |
| 1777954518 | 11.11° C | 89% | 1009.6 hPa | 0 mm | - | 0 W/m² | - |
| 1777954218 | 11.11° C | 89% | 1009.6 hPa | 0 mm | - | 0 W/m² | - |
| 1777953917 | 11.11° C | 89% | 1009.8 hPa | 0 mm | - | 0 W/m² | - |
| 1777953618 | 10.56° C | 89% | 1009.7 hPa | 0 mm | - | 0 W/m² | - |
| 1777953318 | 10.56° C | 89% | 1009.8 hPa | 0 mm | - | 0 W/m² | - |
| 1777953018 | 10.56° C | 88% | 1009.8 hPa | 0 mm | - | 0 W/m² | - |
| 1777952718 | 10.56° C | 88% | 1009.9 hPa | 0 mm | - | 0 W/m² | - |
* Rain latest hour (hover to see other rain measurements)
** Current wind speed in m/s (hover to see current wind gust speed)